Location: Unspecified
(33.6682°S, 0.0000°E)
Time: 08:47:54
(UTC+00:00)

Vanguard 2 Rocket - Pass Details

Date: 25 June 2019
Orbit: 554 x 3326 km, 32.9° (Epoch: 18 July)

Event Time Altitude Azimuth Distance (km) Brightness Sun altitude
Rises 10:29:56 0° 272° (W) 6,489 11.0 28.8°
Reaches altitude 10° 10:34:51 10° 272° (W) 5,079 10.6 29.2°
Maximum altitude 10:48:13 87° 358° (N) 1,542 8.6 30.3°
Drops below altitude 10° 10:55:26 10° 86° (E) 2,882 9.8 30.7°
Sets 10:57:31 0° 87° (E) 3,599 10.2 30.9°
